This is the latest recevied weather packets stored in our database for station/object OK2ZAW-19. If no packets are shown the sender has not sent any weather packets the latest 1 day(s).
| Time | Temp. | Humidity | Pressure | Rain* | Wind** | Luminosity | Snow |
|---|---|---|---|---|---|---|---|
| 1777984189 | 23.89° C | 44% | 1008.4 hPa | - | 0.45 m/s, 315° | 337 W/m² | - |
| 1777983254 | 23.33° C | 46% | 1008.6 hPa | - | 0.89 m/s, 315° | 338 W/m² | - |
| 1777982942 | 23.33° C | 47% | 1008.6 hPa | - | 0.89 m/s, 315° | 337 W/m² | - |
| 1777982630 | 22.78° C | 46% | 1008.6 hPa | - | 0.89 m/s, 315° | 337 W/m² | - |
| 1777982318 | 22.78° C | 47% | 1008.7 hPa | - | 1.34 m/s, 315° | 337 W/m² | - |
| 1777982006 | 22.22° C | 47% | 1008.7 hPa | - | 1.34 m/s, 315° | 337 W/m² | - |
| 1777981695 | 22.22° C | 49% | 1008.7 hPa | - | 0.89 m/s, 315° | 337 W/m² | - |
| 1777981383 | 22.22° C | 47% | 1008.6 hPa | - | 1.34 m/s, 315° | 337 W/m² | - |
| 1777980760 | 22.22° C | 49% | 1008.8 hPa | - | 0.89 m/s, 315° | 336 W/m² | - |
| 1777980448 | 21.67° C | 49% | 1008.8 hPa | - | 0.89 m/s, 315° | 337 W/m² | - |
| 1777980136 | 21.67° C | 49% | 1008.9 hPa | - | 0.89 m/s, 315° | 337 W/m² | - |
| 1777979825 | 21.67° C | 50% | 1008.9 hPa | - | 1.34 m/s, 315° | 337 W/m² | - |
| 1777979513 | 21.11° C | 49% | 1008.9 hPa | - | 0.89 m/s, 315° | 337 W/m² | - |
| 1777979201 | 21.11° C | 49% | 1008.9 hPa | - | 1.34 m/s, 315° | 337 W/m² | - |
| 1777978890 | 21.11° C | 49% | 1008.7 hPa | - | 0.89 m/s, 315° | 337 W/m² | - |
| 1777978578 | 21.11° C | 50% | 1008.9 hPa | - | 0.89 m/s, 315° | 337 W/m² | - |
| 1777977955 | 20.56° C | 53% | 1009 hPa | - | 0.89 m/s, 315° | 337 W/m² | - |
| 1777977332 | 20° C | 53% | 1009 hPa | - | 0.89 m/s, 315° | 337 W/m² | - |
| 1777976709 | 19.44° C | 53% | 1009.1 hPa | - | 1.34 m/s, 315° | 337 W/m² | - |
| 1777976398 | 19.44° C | 55% | 1009.2 hPa | - | 0.89 m/s, 315° | 337 W/m² | - |
| 1777976087 | 18.89° C | 56% | 1009.3 hPa | - | 0.89 m/s, 315° | 337 W/m² | - |
| 1777975464 | 18.33° C | 58% | 1009.2 hPa | - | 1.34 m/s, 315° | 337 W/m² | - |
| 1777975153 | 18.33° C | 60% | 1009.1 hPa | - | 1.34 m/s, 315° | 337 W/m² | - |
| 1777974841 | 17.78° C | 61% | 1009.1 hPa | - | 0.89 m/s, 315° | 337 W/m² | - |
| 1777974530 | 17.22° C | 61% | 1009.1 hPa | - | 0.89 m/s, 315° | 337 W/m² | - |
* Rain since midnight (hover to see other rain measurements)
** Current wind speed in m/s (hover to see current wind gust speed)